COSMOS 2436 (GLONASS)

Satellite information

Favourite Embed

Satellite Type and Status

PAYLOADIN ORBIT

Key statistics

Satellite COSMOS 2436 (GLONASS) at a glance.

Uptime

6404

Days in orbit

Revolutions

≈ 2.1

Per day

Orbit

MEO

Medium Earth Orbit

Inclination

64.3

Latest

Satellite identification and parameters

Extended collection of information and parameters for COSMOS 2436 (GLONASS).

Object identification

Identified? True

Debris? False

Object name: COSMOS 2436 (GLONASS)

International designator: 2007-065C

Object number (NORAD): 32395

Object ID (CCSDS): 32395

Country: COMMONWEALTH OF INDEPENDENT STATES (CIS)

Current information (Y/N): Y

RCS size: LARGE

Orbital parameters

Period: 675.738 minutes

Inclination: 64.3256 deg

SMA: 25508.159 km

Apoapsis: 19172.57 km

Periapsis: 19087.479 km

RAAN: 203.6447 deg

Eccentricy: 0.0016679

Argument of periapsis: 352.6715 deg

Mean anomaly: 10.3626 deg

Mean motion: 2.13100308 rev/day

Mean motion (dot): 0.00000113 rev/day2

B* drag term: 0.0 1/REarth

Two-line elements (TLE)

Creation date: July 6, 2025, 6:05 p.m.

Reference frame: TEME

Reference center: EARTH

Epoch: July 6, 2025, 12:18 p.m. UTC

TLE line 0: 0 COSMOS 2436 (GLONASS)

TLE line 1: 1 32395U 07065C 25187.51294741 .00000113 00000-0 00000-0 0 9991

TLE line 2: 2 32395 64.3256 203.6447 0016679 352.6715 10.3626 2.13100308136369

Live tracking on map

Real-time ground track for satellite COSMOS 2436 (GLONASS).

In-orbit conjunctions

There are no conjunctions computed for COSMOS 2436 (GLONASS), at the moment. Check back to stay up to date, as we update our databases every day.

Go to all conjunctions

Associated space launch

GLONASS navigation satellites

COSMOS 2436 (GLONASS) was lifted into orbit during the mission ‘Proton-M | Uragan-M 12 to 14’, on board a Proton-M space rocket.

The launch took place on Dec. 25, 2007, 7:32 p.m. from 81/24 (81P).

For more information about the launch, click the button.

Launch to space Proton-M | Uragan-M 12 to 14
Proton-M | Uragan-M 12 to 14

Agency: N/A

Status: Launch Successful

Launch date: Dec. 25, 2007, 7:32 p.m. UTC

Rocket: Proton-M

Launch pad: 81/24 (81P)

Location: Baikonur Cosmodrome, Republic of Kazakhstan

...

Latest news about this satellite

There are no fresh news available about this satellite. Check back as we update our databases every day.


Newsletter sign-up

Weekly statistics, charts and insights to help you stay on top of the space industry.